Estación meteorológica de Susqueda - Presa de (La Selva, Susqueda)

Consulta los datos en tiempo real de la estación meteorológica de Susqueda - Presa de





Hora UTC 16:55
Temperatura 15.2 ºC
Humedad 88.0 %
Presión 1009.2 hPa
Pluja 5.0 mm
Velocidad viento 0.0 km/h
Dirección viento SW

Webcam

Datos diarios 2026-05-04



Hora UTC (invierno +1h; verano +2h)
Temperatura (ºC) Humedad (%) Presión (hPa) Velocidad viento (km/h) Precipitación (mm)
Hora UTC Aire Humedad Presión Vel. Dir. Vel. Max Dir. Intent. máx 5 min.
00:05 13.8 87.0 1012.8 0.0 WSW 0.0 0.0
00:10 13.8 87.0 1012.7 0.0 W 0.0 0.0
00:15 13.8 87.0 1012.7 0.0 W 0.0 0.0
00:20 13.8 87.0 1012.6 0.0 W 0.0 0.0
00:25 13.8 87.0 1012.5 0.0 W 0.0 0.0
00:30 13.7 87.0 1012.4 0.0 W 1.6 0.0
00:35 13.7 87.0 1012.4 0.0 W 1.6 0.0
00:40 13.7 87.0 1012.5 0.0 W 0.0 0.0
00:45 13.7 87.0 1012.4 0.0 W 0.0 0.0
00:50 13.8 87.0 1012.5 0.0 W 0.0 0.0
00:55 13.9 86.0 1012.4 0.0 WNW 0.0 0.0
01:00 13.9 86.0 1012.4 0.0 W 0.0 0.0
01:05 13.8 86.0 1012.4 0.0 WNW 0.0 0.0
01:10 13.8 87.0 1012.3 0.0 WNW 0.0 0.0
01:15 13.8 87.0 1012.3 0.0 W 0.0 0.0
01:20 13.9 86.0 1012.2 0.0 W 1.6 0.0
01:25 13.9 86.0 1012.1 0.0 SW 9.7 0.0
01:30 14.0 86.0 1012.0 0.0 WSW 9.7 0.0
01:35 13.9 86.0 1012.1 0.0 W 11.3 0.0
01:40 14.2 86.0 1012.2 11.3 W 12.9 0.0
01:45 14.2 85.0 1012.1 9.7 W 12.9 0.0
01:50 14.2 85.0 1012.2 0.0 W 12.9 0.0
01:55 14.2 84.0 1012.2 9.7 WNW 11.3 0.0
02:00 14.2 85.0 1012.1 4.8 W 12.9 0.0
02:05 14.2 84.0 1012.1 4.8 W 12.9 0.0
02:10 14.2 84.0 1012.1 11.3 W 12.9 0.0
02:15 14.3 84.0 1012.0 6.4 W 12.9 0.0
02:20 14.3 83.0 1012.0 0.0 WNW 12.9 0.0
02:25 14.3 83.0 1012.0 0.0 WNW 12.9 0.0
02:30 14.3 83.0 1011.9 0.0 W 11.3 0.0
02:35 14.2 84.0 1011.9 0.0 NW 8.0 0.0
02:40 14.0 85.0 1012.0 0.0 NW 0.0 0.0
02:45 13.9 85.0 1012.0 0.0 NNE 0.0 0.0
02:50 14.0 85.0 1012.0 0.0 W 0.0 0.0
02:55 14.1 84.0 1011.9 0.0 W 0.0 0.0
03:00 14.1 84.0 1011.9 0.0 W 0.0 0.0
03:05 14.0 84.0 1011.9 0.0 WNW 1.6 0.0
03:10 14.1 85.0 1011.9 0.0 W 1.6 0.0
03:15 14.1 84.0 1011.8 0.0 W 3.2 0.0
03:20 14.1 84.0 1011.8 0.0 W 3.2 0.0
03:25 14.0 85.0 1011.8 0.0 WNW 9.7 0.0
03:30 14.0 85.0 1011.9 0.0 WNW 4.8 0.0
03:35 13.8 85.0 1011.9 0.0 N 4.8 0.0
03:40 13.9 85.0 1011.8 0.0 WNW 8.0 0.0
03:45 14.2 84.0 1011.7 4.8 WNW 8.0 0.0
03:50 14.2 84.0 1011.6 0.0 WSW 6.4 0.0
03:55 13.9 85.0 1011.5 0.0 W 4.8 0.0
04:00 13.8 86.0 1011.5 0.0 WNW 4.8 0.0
04:05 13.8 86.0 1011.5 0.0 WNW 0.0 0.0
04:10 13.8 86.0 1011.4 0.0 WNW 0.0 0.0
04:15 13.9 85.0 1011.5 0.0 W 0.0 0.0
04:20 14.1 85.0 1011.4 0.0 W 0.0 0.0
04:25 14.0 85.0 1011.4 0.0 W 0.0 0.0
04:30 14.0 85.0 1011.4 0.0 W 1.6 0.0
04:35 14.0 85.0 1011.3 0.0 W 1.6 0.0
04:40 14.1 85.0 1011.3 0.0 W 0.0 0.0
04:45 14.1 85.0 1011.3 0.0 W 0.0 0.0
04:50 14.1 85.0 1011.2 0.0 W 0.0 0.0
04:55 14.1 85.0 1011.3 0.0 W 0.0 0.0
05:00 13.9 86.0 1011.3 0.0 W 1.6 0.0
05:05 14.0 85.0 1011.3 6.4 W 11.3 0.0
05:10 14.0 85.0 1011.4 0.0 W 11.3 0.0
05:15 14.0 85.0 1011.4 0.0 WNW 11.3 0.0
05:20 14.2 85.0 1011.4 6.4 W 11.3 0.0
05:25 14.2 85.0 1011.3 9.7 W 11.3 0.0
05:30 14.2 85.0 1011.3 0.0 W 11.3 0.0
05:35 14.1 85.0 1011.3 0.0 W 11.3 0.0
05:40 14.1 85.0 1011.4 0.0 W 11.3 0.0
05:45 14.1 85.0 1011.3 0.0 W 9.7 0.0
05:50 14.2 84.0 1011.3 0.0 W 9.7 0.0
05:55 14.3 84.0 1011.2 0.0 W 1.6 0.0
06:00 14.4 83.0 1011.3 8.0 WSW 11.3 0.0
06:05 14.6 84.0 1011.2 6.4 W 9.7 0.0
06:10 14.7 83.0 1011.2 9.7 W 12.9 0.0
06:15 14.9 83.0 1011.2 11.3 W 12.9 0.0
06:20 14.9 82.0 1011.1 9.7 W 14.5 0.0
06:25 15.0 81.0 1011.2 9.7 W 14.5 0.0
06:30 15.1 82.0 1011.1 9.7 W 12.9 0.0
06:35 15.2 82.0 1011.1 12.9 WSW 12.9 0.0
06:40 15.4 80.0 1011.1 0.0 W 14.5 0.0
06:45 15.4 80.0 1011.0 0.0 WNW 14.5 0.0
06:50 15.5 80.0 1011.0 8.0 WSW 12.9 0.0
06:55 15.6 80.0 1010.8 11.3 W 14.5 0.0
07:00 15.7 79.0 1010.7 12.9 W 14.5 0.0
07:05 15.8 79.0 1010.8 9.7 W 16.1 0.0
07:10 15.9 79.0 1010.7 14.5 WNW 16.1 0.0
07:15 16.0 79.0 1010.7 12.9 W 16.1 0.0
07:20 16.1 78.0 1010.8 14.5 W 14.5 0.0
07:25 16.1 78.0 1010.8 14.5 W 16.1 0.0
07:30 16.2 79.0 1010.8 12.9 W 16.1 0.0
07:35 16.2 77.0 1010.7 11.3 W 16.1 0.0
07:40 16.3 77.0 1010.5 12.9 W 14.5 0.0
07:45 16.4 76.0 1010.6 14.5 W 14.5 0.0
07:50 16.6 76.0 1010.4 14.5 WSW 14.5 0.0
07:55 16.7 76.0 1010.5 12.9 W 14.5 0.0
08:00 16.8 76.0 1010.5 14.5 WNW 14.5 0.0
08:05 17.0 72.0 1010.5 12.9 W 14.5 0.0
08:10 17.1 75.0 1010.5 12.9 W 14.5 0.0
08:15 17.2 73.0 1010.4 14.5 W 14.5 0.0
08:20 17.3 74.0 1010.3 14.5 W 14.5 0.0
08:25 17.4 73.0 1010.3 12.9 W 14.5 0.0
08:30 17.4 72.0 1010.2 12.9 W 14.5 0.0
08:35 17.6 71.0 1010.2 14.5 W 14.5 0.0
08:40 17.8 72.0 1010.3 11.3 W 14.5 0.0
08:45 17.9 71.0 1010.3 11.3 W 14.5 0.0
08:50 18.0 71.0 1010.2 11.3 W 14.5 0.0
08:55 18.0 69.0 1010.2 11.3 W 14.5 0.0
09:00 18.1 72.0 1010.1 12.9 W 14.5 0.0
09:05 18.3 68.0 1010.1 11.3 W 14.5 0.0
09:10 18.3 68.0 1010.1 11.3 W 14.5 0.0
09:15 18.3 69.0 1010.0 11.3 W 14.5 0.0
09:20 18.4 69.0 1010.0 9.7 W 14.5 0.0
09:25 18.4 70.0 1010.1 11.3 W 12.9 0.0
09:30 18.3 71.0 1010.1 12.9 W 12.9 0.0
09:35 18.4 70.0 1010.2 9.7 W 12.9 0.0
09:40 18.5 71.0 1010.3 8.0 WSW 11.3 0.0
09:45 18.6 69.0 1010.3 0.0 W 11.3 0.0
09:50 18.7 70.0 1010.3 0.0 W 9.7 0.0
09:55 18.8 69.0 1010.3 0.0 W 6.4 0.0
10:00 19.0 68.0 1010.1 0.0 W 6.4 0.0
10:05 19.3 66.0 1010.2 4.8 WSW 11.3 0.0
10:10 19.4 66.0 1010.1 4.8 W 11.3 0.0
10:15 19.7 65.0 1010.1 6.4 W 11.3 0.0
10:20 19.6 66.0 1010.0 0.0 WSW 12.9 0.0
10:25 19.6 68.0 1010.0 0.0 W 9.7 0.0
10:30 19.6 65.0 1010.0 0.0 W 9.7 0.0
10:35 19.7 64.0 1010.0 0.0 W 9.7 0.0
10:40 19.7 63.0 1010.0 0.0 W 0.0 0.0
10:45 19.8 64.0 1009.9 0.0 W 1.6 0.0
10:50 19.8 64.0 1010.0 0.0 W 1.6 0.0
10:55 19.9 63.0 1010.0 0.0 W 0.0 0.0
11:00 20.0 64.0 1009.8 0.0 W 0.0 0.0
11:05 19.9 63.0 1009.8 0.0 W 0.0 0.0
11:10 19.8 64.0 1009.7 0.0 WSW 0.0 0.0
11:15 19.9 63.0 1009.7 0.0 WSW 0.0 0.0
11:20 20.3 64.0 1009.5 0.0 SW 1.6 0.0
11:25 20.4 63.0 1009.5 0.0 SE 0.0 0.0
11:30 20.6 65.0 1009.4 0.0 E 0.0 0.0
11:35 20.7 68.0 1009.2 0.0 ESE 6.4 0.0
11:40 20.8 69.0 1009.2 1.6 ESE 6.4 0.0
11:45 20.9 70.0 1009.2 0.0 E 6.4 0.0
11:50 21.1 70.0 1009.2 0.0 ESE 9.7 0.0
11:55 21.2 71.0 1009.1 6.4 ESE 9.7 0.0
12:00 21.4 70.0 1008.9 6.4 SE 9.7 0.0
12:05 21.7 72.0 1008.9 0.0 E 12.9 0.0
12:10 22.4 70.0 1008.9 0.0 ESE 9.7 0.0
12:15 21.9 70.0 1008.9 0.0 E 12.9 0.0
12:20 21.3 72.0 1009.0 0.0 ESE 12.9 0.0
12:25 20.7 73.0 1009.0 0.0 ENE 6.4 0.0
12:30 20.2 76.0 1008.9 0.0 E 6.4 0.0
12:35 19.6 78.0 1008.8 0.0 E 6.4 0.0
12:40 19.2 78.0 1008.8 0.0 NE 6.4 0.0
12:45 19.0 79.0 1008.8 0.0 E 6.4 0.0
12:50 18.9 79.0 1008.6 6.4 E 11.3 0.0
12:55 19.0 80.0 1008.6 1.6 ENE 9.7 0.0
13:00 19.3 79.0 1008.6 0.0 NE 6.4 0.0
13:05 19.3 79.0 1008.7 0.0 NNE 6.4 0.0
13:10 19.1 79.0 1008.6 0.0 E 4.8 0.0
13:15 18.8 80.0 1008.8 0.0 ESE 8.0 0.0
13:20 18.5 81.0 1008.8 0.0 E 8.0 0.0
13:25 18.3 82.0 1009.0 0.0 NE 6.4 0.0
13:30 18.3 82.0 1009.0 0.0 ENE 6.4 0.0
13:35 18.3 83.0 1009.0 0.0 ENE 1.6 0.0
13:40 18.6 84.0 1008.8 0.0 ESE 1.6 0.0
13:45 18.9 82.0 1008.9 0.0 ENE 6.4 0.0
13:50 18.9 81.0 1008.8 0.0 E 6.4 0.0
13:55 18.9 81.0 1008.7 0.0 E 6.4 0.0
14:00 18.9 82.0 1008.7 0.0 E 6.4 0.0
14:05 18.8 81.0 1008.7 4.8 ENE 6.4 0.0
14:10 18.2 82.0 1008.7 0.0 E 8.0 0.0
14:15 18.1 83.0 1009.0 0.0 E 3.2 0.0
14:20 18.1 84.0 1008.9 0.0 E 0.0 0.0
14:25 17.6 85.0 1008.6 0.0 ENE 6.4 0.2
14:30 17.2 86.0 1008.7 0.0 NE 6.4 0.2
14:35 16.9 88.0 1008.9 0.0 ENE 1.6 0.2
14:40 16.8 89.0 1009.1 0.0 ENE 0.0 0.4
14:45 16.7 89.0 1009.1 0.0 NE 0.0 0.8
14:50 16.4 89.0 1009.2 0.0 NE 0.0 0.6
14:55 16.5 90.0 1009.3 0.0 SE 0.0 0.4
15:00 16.2 90.0 1009.2 8.0 WNW 8.0 0.2
15:05 15.9 88.0 1009.2 14.5 W 14.5 0.6
15:10 15.7 86.0 1009.3 14.5 W 14.5 0.4
15:15 15.6 87.0 1009.4 14.5 W 14.5 0.2
15:20 15.6 87.0 1009.5 1.6 W 14.5 0.0
15:25 15.2 86.0 1009.5 0.0 W 12.9 0.2
15:30 15.1 86.0 1009.5 0.0 W 12.9 0.2
15:35 15.0 86.0 1009.6 0.0 W 8.0 0.2
15:40 15.0 86.0 1009.6 0.0 WSW 0.0 0.0
15:45 15.1 86.0 1009.5 0.0 W 0.0 0.0
15:50 15.1 86.0 1009.5 0.0 W 0.0 0.0
15:55 15.1 85.0 1009.4 9.7 W 11.3 0.0
16:00 15.2 84.0 1009.4 0.0 W 11.3 0.0
16:05 15.3 85.0 1009.4 0.0 WSW 11.3 0.0
16:10 15.2 84.0 1009.4 0.0 W 9.7 0.0
16:15 15.2 85.0 1009.2 0.0 SSW 1.6 0.0
16:20 15.2 85.0 1009.4 0.0 SW 1.6 0.2
16:25 15.2 86.0 1009.5 0.0 SW 1.6 0.0
16:30 15.3 88.0 1009.3 0.0 SW 1.6 0.0
16:35 15.4 88.0 1009.4 0.0 SW 0.0 0.0
16:40 15.2 88.0 1009.3 0.0 SW 0.0 0.0
16:45 15.0 88.0 1009.2 0.0 SW 0.0 0.0
16:50 15.1 88.0 1009.2 0.0 SW 0.0 0.0
16:55 15.2 88.0 1009.2 0.0 SW 0.0 0.0
Máxima 22.4 90.0 1012.8 14.5 W 16.1 0.8
Mínima 13.7 63.0 1008.6
Total 5.0